Location: Derby
(52.9213°N, 1.4761°W)
Time: 02:32:58
(UTC+01:00)

A-11 Canister half - Pass Details

Date: 23 May 2025
Orbit: 1524 x 1684 km, 47.3° (Epoch: 12 June)

Event Time Altitude Azimuth Distance (km) Brightness Sun altitude
Rises 22:49:32 0° 272° (W) 4,736 12.1 -10.9°
Reaches altitude 10° 22:52:37 10° 269° (W) 3,771 11.5 -11.1°
Maximum altitude 23:01:57 59° 193° (SSW) 1,819 9.2 -11.8°
Drops below altitude 10° 23:11:35 10° 118° (ESE) 3,890 10.6 -12.5°
Enters shadow 23:13:19 - 116° (ESE) 4,425 10.9 -12.6°
